Weather reports worldwide

Advertisment
Dunkerque, France (7010): temperature & dewpoint: 31.05.2020 19:00:00 - 06.06.2020 19:00:00 (CEST)Dunkerque, France (7010): wind speed & gusts: 31.05.2020 19:00:00 - 06.06.2020 19:00:00 (CEST)Dunkerque, France (7010): wind direction: 31.05.2020 19:00:00 - 06.06.2020 19:00:00 (CEST)Dunkerque, France (7010): reduced air pressure: 31.05.2020 19:00:00 - 06.06.2020 19:00:00 (CEST)Dunkerque, France (7010): visibility: 31.05.2020 19:00:00 - 06.06.2020 19:00:00 (CEST)Dunkerque, France (7010): precipitation: 31.05.2020 19:00:00 - 06.06.2020 19:00:00 (CEST)
Date & Time tt [°C] td [°C] ff [km/h] ff [kn] fx [km/h] fx [kn] dd ppp [hPa] vv [km] rr [mm]
06.06.2020 19:00:00 - - - - - - - - - -
06.06.2020 18:00:00 11,8 8,6 30 16 54 29 SW 1000,5 10 0,8
06.06.2020 17:00:00 12,2 7,3 35 19 66 35 SW 1000,8 9 0,0
06.06.2020 16:00:00 13,3 5,9 40 22 73 39 SW 1000,4 10 0,0
06.06.2020 15:00:00 13,9 5,3 35 19 72 39 SW 1000,2 10 0,0
06.06.2020 14:00:00 14,2 4,5 37 20 74 40 WSW 1000,0 10 0,0
06.06.2020 13:00:00 13,5 4,9 34 19 70 38 WSW 999,8 10 0,0
06.06.2020 12:00:00 13,4 3,7 35 19 64 34 WSW 999,6 10 0,0
06.06.2020 11:00:00 12,9 3,8 33 18 61 33 WSW 999,3 15 0,0
06.06.2020 10:00:00 12,2 3,2 26 14 53 29 WSW 999,4 10 0,0
06.06.2020 09:00:00 11,8 5,9 27 15 48 26 W 999,3 10 0,0
06.06.2020 08:00:00 11,4 4,4 27 15 44 24 W 999,3 15 0,0
06.06.2020 07:00:00 11,2 5,7 25 14 37 20 W 998,7 10 0,0
06.06.2020 06:00:00 10,5 5,9 13 7 35 19 SW 998,2 10 0,2
06.06.2020 05:00:00 11,3 5,8 20 11 44 24 SW 998,4 15 0,0
06.06.2020 04:00:00 10,7 6,3 12 6 23 12 SSW 998,2 - 0,0
06.06.2020 03:00:00 13,2 5,1 10 5 41 22 SW 998,2 - 0,0
06.06.2020 02:00:00 13,4 4,5 29 16 43 23 W 997,8 15 0,0
06.06.2020 01:00:00 9,6 6,9 14 8 24 13 SSW 998,0 - 0,0
06.06.2020 00:00:00 10,0 6,3 15 8 24 13 SSW 998,0 - 0,0
05.06.2020 23:00:00 10,7 6,3 17 9 29 16 SW 997,8 15 0,0
05.06.2020 22:00:00 11,3 6,4 18 10 36 20 SSW 997,7 10 0,0
05.06.2020 21:00:00 13,8 5,4 23 13 39 21 W 997,6 10 0,0
05.06.2020 20:00:00 12,8 6,4 24 13 41 22 WNW 997,6 15 0,0
05.06.2020 19:00:00 12,0 6,7 29 16 70 38 NW 997,3 10 0,6
05.06.2020 18:00:00 14,1 7,4 20 11 35 19 W 997,0 10 0,0
05.06.2020 17:00:00 12,3 7,2 20 11 53 28 W 996,9 10 0,6
05.06.2020 16:00:00 11,8 8,1 29 15 50 27 W 997,0 10 0,4
05.06.2020 15:00:00 13,3 7,7 32 17 52 28 NW 996,0 9 0,0
05.06.2020 14:00:00 11,6 8,4 35 19 74 40 NW 995,2 10 0,0
05.06.2020 13:00:00 13,5 6,8 37 20 51 28 W 994,3 10 0,0
05.06.2020 12:00:00 13,8 6,9 38 21 55 30 W 993,9 10 0,0
05.06.2020 11:00:00 13,0 6,6 39 21 55 30 WNW 993,8 10 0,0
05.06.2020 10:00:00 12,5 7,4 33 18 54 29 W 993,8 10 0,4
05.06.2020 09:00:00 12,4 10,1 33 18 51 27 W 993,8 9 3,7
05.06.2020 08:00:00 12,3 10,5 24 13 56 30 SW 994,3 10 0,8
05.06.2020 07:00:00 11,8 9,9 21 11 32 17 SSW 995,2 10 0,0
05.06.2020 06:00:00 11,6 9,3 13 7 25 14 SSW 996,0 10 0,6
05.06.2020 05:00:00 11,8 9,2 14 8 22 12 SSW 996,9 - 0,0
05.06.2020 04:00:00 11,5 8,7 14 7 22 12 SW 997,7 - 0,0
05.06.2020 03:00:00 11,3 8,2 12 7 20 11 SSW 998,5 - 0,0
05.06.2020 02:00:00 11,5 8,7 13 7 19 10 SSW 999,2 - 0,0
05.06.2020 01:00:00 12,0 8,7 10 6 27 15 SSW 999,7 - 0,0
05.06.2020 00:00:00 12,7 7,8 17 9 26 14 W 1000,5 - 0,0
04.06.2020 23:00:00 12,3 8,2 15 8 31 17 W 1001,0 - 0,0
04.06.2020 22:00:00 13,0 6,6 15 8 23 12 NW 1000,9 10 0,0
04.06.2020 21:00:00 13,0 7,4 10 5 29 16 NNW 1000,9 10 0,0
04.06.2020 20:00:00 13,8 6,4 16 9 25 13 WNW 1000,8 10 0,0
04.06.2020 19:00:00 14,6 6,4 18 10 28 15 NW 1000,7 10 0,0
04.06.2020 18:00:00 13,8 8,2 16 9 37 20 NNW 1000,7 10 0,0
04.06.2020 17:00:00 13,5 8,3 19 10 30 16 NNW 1001,3 10 0,0
04.06.2020 16:00:00 13,7 7,7 18 10 30 16 NNW 1001,2 10 0,0
04.06.2020 15:00:00 13,6 7,8 22 12 37 20 NNW 1001,3 10 0,0
04.06.2020 14:00:00 13,4 8,9 25 13 43 23 NNW 1001,5 12 0,0
04.06.2020 13:00:00 13,3 9,2 26 14 48 26 N 1001,6 10 0,0
04.06.2020 12:00:00 13,1 9,7 29 16 46 25 N 1001,4 10 0,0
04.06.2020 11:00:00 13,7 11,0 26 14 44 24 N 1001,2 12 0,0
04.06.2020 10:00:00 13,5 10,7 25 14 38 21 N 1001,4 10 0,0
04.06.2020 09:00:00 13,6 10,8 21 12 41 22 N 1001,5 10 0,0
04.06.2020 08:00:00 13,5 10,8 25 13 40 22 N 1001,2 10 0,0
04.06.2020 07:00:00 13,7 11,4 25 13 40 22 N 1001,5 10 0,0
04.06.2020 06:00:00 13,5 10,7 29 16 41 22 N 1001,5 10 0,0
04.06.2020 05:00:00 13,4 10,7 28 15 43 23 N 1001,9 - 0,0
04.06.2020 04:00:00 13,5 11,0 30 16 48 26 N 1002,2 - 0,0
04.06.2020 03:00:00 13,6 11,1 29 16 42 23 N 1003,3 - 0,0
04.06.2020 02:00:00 13,7 11,2 27 15 44 24 N 1003,7 12 0,0
04.06.2020 01:00:00 13,8 11,0 30 16 45 24 N 1004,0 - 0,0
04.06.2020 00:00:00 14,2 11,4 29 15 44 24 N 1004,7 - 0,0
03.06.2020 23:00:00 14,2 11,5 30 16 43 23 N 1005,0 - 0,0
03.06.2020 22:00:00 14,1 11,6 29 15 39 21 NNE 1005,3 10 0,0
03.06.2020 21:00:00 14,2 11,7 26 14 39 21 N 1005,3 10 0,0
03.06.2020 20:00:00 14,4 11,7 21 11 32 17 N 1005,4 10 0,0
03.06.2020 19:00:00 15,2 12,5 20 11 30 16 N 1005,6 10 0,0
03.06.2020 18:00:00 15,7 12,4 16 9 30 16 N 1005,9 10 0,0
03.06.2020 17:00:00 15,8 12,4 18 10 27 15 N 1006,3 12 0,0
03.06.2020 16:00:00 15,8 12,2 14 8 23 12 N 1006,8 10 0,0
03.06.2020 15:00:00 16,6 12,1 12 7 21 11 N 1007,0 10 0,0
03.06.2020 14:00:00 16,8 11,9 10 5 19 11 N 1007,4 12 0,0
03.06.2020 13:00:00 17,0 11,5 9 5 18 10 N 1007,9 10 0,0
03.06.2020 12:00:00 16,6 10,4 9 5 15 8 N 1008,1 - 0,0
03.06.2020 11:00:00 16,0 10,1 5 3 14 8 N 1008,3 12 0,0
03.06.2020 10:00:00 16,1 11,5 8 4 18 10 N 1008,5 10 0,0
03.06.2020 09:00:00 15,2 11,2 8 4 18 10 NNW 1008,9 10 0,0
03.06.2020 08:00:00 14,8 11,0 7 4 16 9 NW 1009,1 10 0,0
03.06.2020 07:00:00 14,3 11,3 0 0 6 3 N 1009,5 7 0,0
03.06.2020 06:00:00 14,0 11,2 0 0 5 3 N 1009,8 8 0,0
03.06.2020 05:00:00 13,9 10,9 0 0 0 0 N 1010,2 - 0,0
03.06.2020 04:00:00 14,7 12,7 0 0 0 0 N 1010,8 - 0,0
03.06.2020 03:00:00 13,9 12,1 0 0 0 0 N 1011,5 - 0,0
03.06.2020 02:00:00 14,3 12,3 0 0 0 0 N 1012,4 12 0,0
03.06.2020 01:00:00 14,6 12,6 0 0 0 0 N 1013,0 - 0,0
03.06.2020 00:00:00 14,8 12,8 0 0 8 4 N 1013,7 - 0,0
02.06.2020 23:00:00 15,2 13,0 0 0 2 1 N 1014,1 - 0,0
02.06.2020 22:00:00 15,5 13,0 0 0 0 0 N 1014,4 10 0,0
02.06.2020 21:00:00 15,9 12,8 0 0 0 0 N 1014,8 10 0,0
02.06.2020 20:00:00 16,5 12,8 0 0 0 0 N 1015,2 10 0,0
02.06.2020 19:00:00 16,8 12,3 0 0 3 2 N 1015,8 10 0,0
02.06.2020 18:00:00 17,3 12,2 0 0 10 5 N 1016,4 10 0,0
02.06.2020 17:00:00 17,3 12,4 3 1 15 8 N 1017,1 12 0,0
02.06.2020 16:00:00 16,3 12,8 11 6 18 10 NNW 1017,7 10 0,0
02.06.2020 15:00:00 15,9 12,8 11 6 20 11 NW 1018,3 10 0,0
02.06.2020 14:00:00 16,0 13,3 12 6 18 10 NNW 1018,6 10 0,0
02.06.2020 13:00:00 16,0 12,9 8 4 19 10 N 1019,1 10 0,0
02.06.2020 12:00:00 15,4 12,7 16 9 23 12 NNW 1019,4 10 0,0
02.06.2020 11:00:00 15,5 13,2 14 8 20 11 NNW 1019,6 10 0,0
02.06.2020 10:00:00 15,3 13,0 14 8 21 11 NNW 1019,7 10 0,0
02.06.2020 09:00:00 16,2 13,9 8 5 16 8 N 1019,6 10 0,0
02.06.2020 08:00:00 15,3 13,8 11 6 21 11 NNE 1019,7 10 0,0
02.06.2020 07:00:00 14,3 13,3 13 7 22 12 N 1019,8 10 0,0
02.06.2020 06:00:00 14,1 13,0 13 7 19 10 N 1019,8 10 0,0
02.06.2020 05:00:00 14,2 13,1 12 6 20 11 N 1019,7 15 0,0
02.06.2020 04:00:00 14,6 13,3 11 6 17 9 N 1020,0 - 0,0
02.06.2020 03:00:00 15,2 13,6 11 6 18 10 NNE 1020,4 - 0,0
02.06.2020 02:00:00 15,2 13,2 15 8 23 12 NE 1020,8 15 0,0
02.06.2020 01:00:00 15,5 13,0 15 8 25 13 NNE 1021,1 - 0,0
02.06.2020 00:00:00 16,2 12,6 18 10 28 15 NNE 1021,0 - 0,0
01.06.2020 23:00:00 16,4 11,8 20 11 32 17 NE 1021,0 - 0,0
01.06.2020 22:00:00 16,7 11,8 23 12 36 19 NNE 1020,5 10 0,0
01.06.2020 21:00:00 17,0 11,3 29 16 39 21 NNE 1020,1 10 0,0
01.06.2020 20:00:00 18,1 12,3 26 14 39 21 NE 1020,0 10 0,0
01.06.2020 19:00:00 18,7 12,4 27 15 38 20 NE 1020,2 10 0,0
01.06.2020 18:00:00 19,2 13,4 29 16 40 22 NNE 1020,5 10 0,0
01.06.2020 17:00:00 18,9 13,1 31 17 40 21 NNE 1020,7 15 0,0
01.06.2020 16:00:00 19,1 13,7 25 14 39 21 NNE 1021,1 10 0,0
01.06.2020 15:00:00 19,4 13,3 24 13 37 20 NNE 1021,3 10 0,0
01.06.2020 14:00:00 19,6 13,1 28 15 37 20 NNE 1021,5 15 0,0
01.06.2020 13:00:00 19,4 13,1 23 13 33 18 NNE 1022,0 10 0,0
01.06.2020 12:00:00 19,0 13,6 21 11 26 14 NNE 1022,2 10 0,0
01.06.2020 11:00:00 19,1 12,8 19 10 24 13 NE 1022,1 18 0,0
01.06.2020 10:00:00 18,4 12,4 14 7 18 10 NE 1022,0 10 0,0
01.06.2020 09:00:00 18,0 11,3 11 6 16 9 NE 1022,0 10 0,0
01.06.2020 08:00:00 17,1 10,2 11 6 23 12 E 1022,0 10 0,0
01.06.2020 07:00:00 16,0 11,0 18 10 30 16 E 1021,6 5 0,0
01.06.2020 06:00:00 15,6 12,7 22 12 31 17 ENE 1021,5 10 0,0
01.06.2020 05:00:00 15,8 13,8 23 12 31 17 ENE 1021,5 18 0,0
01.06.2020 04:00:00 15,9 13,7 21 12 30 16 ENE 1021,7 - 0,0
01.06.2020 03:00:00 15,7 13,5 19 10 28 15 NE 1021,8 - 0,0
01.06.2020 02:00:00 15,9 13,7 16 9 26 14 ENE 1021,8 - 0,0
01.06.2020 01:00:00 15,9 13,4 21 11 31 17 ENE 1021,9 - 0,0
01.06.2020 00:00:00 15,8 12,9 20 11 31 17 NE 1021,8 - 0,0
31.05.2020 23:00:00 15,8 12,7 24 13 38 20 NE 1021,6 18 0,0
31.05.2020 22:00:00 15,8 12,5 29 16 42 23 NNE 1021,5 10 0,0
31.05.2020 21:00:00 16,4 12,2 37 20 46 25 NNE 1021,2 10 0,0
31.05.2020 20:00:00 16,8 12,1 35 19 50 27 NNE 1021,1 10 0,0
31.05.2020 19:00:00 17,5 11,1 37 20 54 29 NNE 1021,1 10 0,0

tt = temperature
td = dewpoint
ff = wind speed
fx = gusts
dd = wind direction
ppp = reduced air pressure
vv = visibility
rr = precipitation

Next stations